Location: Castifao
(42.5040°N, 9.1124°E)
Time: 03:39:11
(UTC+00:00)

Meteor 2-10 Rocket - Pass Details

Date: 23 January 2020
Orbit: 733 x 885 km, 81.2° (Epoch: 18 February)

Event Time Altitude Azimuth Distance (km) Brightness Sun altitude
Rises 18:12:41 0° 346° (NNW) 3,318 6.9 -19.7°
Reaches altitude 10° 18:15:08 10° 343° (NNW) 2,360 6.1 -20.2°
Maximum altitude 18:20:20 59° 265° (W) 880 4.0 -21.1°
Drops below altitude 10° 18:25:18 10° 186° (S) 2,261 6.1 -22.0°
Sets 18:27:37 0° 183° (S) 3,167 6.8 -22.5°
